Weather History for Logan, UT

Change the Weather History Date:

Wednesday, October 3, 2012

  Actual Average Record
Temperature  
Mean Temperature 54 °F -  
Max Temperature 68 °F 70 °F 86 °F (1992)
Min Temperature 37 °F 38 °F 26 °F (1999)
Degree Days  
Heating Degree Days 12    
Growing Degree Days 4 (Base 50)    
Moisture  
Dew Point 24 °F    
Average Humidity 40    
Maximum Humidity 73    
Minimum Humidity 11    
Precipitation  
Precipitation 0.00 in - - ()
Sea Level Pressure  
Sea Level Pressure 30.00 in    
Wind  
Wind Speed 6 mph (NNW)    
Max Wind Speed 24 mph    
Max Gust Speed 32 mph    
Visibility 10 miles    
Events      
Averages and records for this station are not official NWS values.
T = Trace of Precipitation, MM = Missing Value Source: NWS Daily Summary

Daily Weather History Graph

Daily Weather History Graph

Search for Another Location

Airport:

Trip Planner

Search our weather history database for the weather conditions in past years. The results will help you decide how hot, cold, wet, or windy it might be!

Date:

Astronomy

Oct. 03, 2012 Rise Set
Actual Time 7:27 AM MDT 7:04 PM MDT
Civil Twilight 6:59 AM MDT 7:32 PM MDT
Nautical Twilight 6:27 AM MDT 8:04 PM MDT
Astronomical Twilight 5:54 AM MDT 8:37 PM MDT
Moon 8:55 PM MDT (10/3) 10:57 AM MDT (10/3)
Length of Visible Light 12h 33m
Length of Day
11h 37m
Waning Gibbous, 88% of the Moon is Illuminated
Oct 3
Waning Gibbous
Oct 8
Last Quarter
Oct 15
New
Oct 21
First Quarter
Oct 29
Full

Hourly Weather History & Observations

Time (MDT) Temp. Windchill Dew Point Humidity Pressure Visibility Wind Dir Wind Speed Gust Speed Precip Events Conditions
12:51 AM 54.0 °F - 34.0 °F 47% 29.84 in 10.0 mi South 6.9 mph - N/A   Clear
1:51 AM 48.9 °F - 34.0 °F 56% 29.86 in 10.0 mi SE 3.5 mph - N/A   Clear
2:51 AM 46.9 °F - 36.0 °F 66% 29.88 in 10.0 mi Calm Calm - N/A   Clear
3:51 AM 46.9 °F - 34.0 °F 61% 29.86 in 10.0 mi South 5.8 mph - N/A   Clear
4:51 AM 41.0 °F - 33.1 °F 73% 29.89 in 10.0 mi Calm Calm - N/A   Clear
5:51 AM 42.1 °F - 33.1 °F 70% 29.91 in 10.0 mi Calm Calm - N/A   Clear
6:51 AM 39.0 °F - 30.9 °F 73% 29.94 in 10.0 mi Calm Calm - N/A   Clear
7:51 AM 43.0 °F - 33.1 °F 68% 29.96 in 10.0 mi Calm Calm - N/A   Clear
8:51 AM 50.0 °F - 35.1 °F 57% 29.98 in 10.0 mi Calm Calm - N/A   Clear
9:51 AM 60.1 °F - 32.0 °F 35% 29.96 in 9.0 mi South 5.8 mph - N/A   Clear
10:51 AM 66.0 °F - 16.0 °F 15% 29.98 in 10.0 mi North 11.5 mph - N/A   Clear
11:51 AM 66.0 °F - 9.0 °F 11% 29.99 in 10.0 mi Variable 3.5 mph - N/A   Clear
12:51 PM 68.0 °F - 12.9 °F 12% 29.99 in 10.0 mi North 15.0 mph 28.8 mph N/A   Clear
1:51 PM 66.0 °F - 16.0 °F 15% 30.02 in 10.0 mi North 24.2 mph 32.2 mph N/A   Partly Cloudy
2:51 PM 64.0 °F - 17.1 °F 16% 30.04 in 10.0 mi North 21.9 mph - N/A   Clear
3:51 PM 64.0 °F - 16.0 °F 16% 30.05 in 10.0 mi North 15.0 mph 25.3 mph N/A   Clear
4:51 PM 63.0 °F - 15.1 °F 16% 30.08 in 10.0 mi North 15.0 mph - N/A   Clear
5:51 PM 61.0 °F - 19.0 °F 20% 30.09 in 10.0 mi North 11.5 mph - N/A   Clear
6:51 PM 55.0 °F - 19.0 °F 24% 30.13 in 10.0 mi NNW 12.7 mph - N/A   Clear
7:51 PM 46.9 °F - 19.9 °F 34% 30.15 in 10.0 mi NNW 10.4 mph - N/A   Clear
9:51 PM 45.0 °F 43.5 °F 18.0 °F 34% 30.13 in 10.0 mi West 3.5 mph - N/A   Clear
10:51 PM 44.1 °F 40.1 °F 19.9 °F 38% 30.14 in 10.0 mi SSW 6.9 mph - N/A   Clear
11:51 PM 37.9 °F 35.5 °F 21.9 °F 53% 30.15 in 10.0 mi South 3.5 mph - N/A   Clear